Starlink 31000

operational
NORAD ID: 58488 Int'l Des: 2023-186 Owner: SPXS Country: US Constellation: starlink
LEOCIRCULAR

About Starlink 31000

Description loading...

Live Position

Loading 3D Globe...

Upcoming Passes

Altitude History

Altitude vs Time

uPlot chart will show altitude changes over time

Two-Line Element Set

1 58488U 23186R 25349.80335928 .00001150 00000-0 10021-3 0 9998
2 58488 43.0029 163.1917 0001294 266.0779 93.9916 15.02526591113226
Epoch: Dec 15, 2025 • Age: 25 hours

Current Status

Altitude 559.4 km
Velocity 7.58 km/s
Sub-Earth Point -4.30°S, 115.36°E
Launch Date Dec 3, 2023
Age 2 years
Type internet

Technical Details

Classification Payload
Mass 730.00 kg
Dry Mass 700.00 kg
Total Mass 730.00 kg
Length 0.30 m
Diameter 4.10 m
Span 29.00 m
Shape Box + pan
Manufacturer SPXS
Bus Type Starlink V2M
Phase Status In Orbit
Owner/State SPXS/US

Large Constellations

Loading constellations...